Home > Weather > Kraków > Past weeks

Flag for Poland Weather for the Past 2 Weeks in Kraków, Poland

Now
50 °F

Clear.


Feels Like: 48 °F
Forecast: 48 / 64 °F
Wind: 5 mph from Southwest

Location: Krakow Airport

Current Time: May 4, 2016 at 9:07:02 AM

Latest Report: May 4, 2016 at 8:00 AM


Visibility: 5 mi

Pressure: 30.04 "Hg

Humidity: 94%

Dew Point: 48 °F

Location of KrakówLocation

Historic Weather in Kraków — Graph

°F

Kraków Temperature Yesterday

Maximum temperature yesterday: 64 °F (at 2:30 PM)
Minimum temperature yesterday: 48 °F (at 6:00 AM)
Average temperature yesterday: 57 °F

High & Low Weather Summary for the Past Weeks

 TemperatureHumidityPressure
High64 °F (May 3, 2:30 PM)100% (Apr 26, 4:30 AM)30.33 "Hg (Apr 26, 4:30 AM)
Low28 °F (Apr 26, 4:00 AM)29% (Apr 22, 3:00 PM)29.59 "Hg (Apr 23, 11:00 PM)
Average48 °F70%29.97 "Hg
* Reported Apr 19 8:00 AM — May 4 8:00 AM, Kraków, Weather by CustomWeather, © 2016

Note: Actual official high and low records may vary slightly from our data, if they occured in-between our weather recording intervals... More about our weather records

Advertising

Kraków Weather History for the Previous 24 Hours

Scroll right to see more
 ConditionsComfort  
Time TempWeatherWind HumidityBarometerVisibility
8:00 AM
Wed, May 4
50 °FClear.5 mph94%30.04 "Hg5 mi
7:00 AM48 °FClear.3 mph94%30.01 "Hg4 mi
6:30 AM46 °FClear.3 mph100%30.01 "Hg4 mi
6:00 AM46 °FFog.3 mph93%30.01 "Hg2 mi
5:30 AM46 °FFog.3 mph93%29.98 "Hg3 mi
5:00 AM46 °FClear.3 mph93%29.98 "Hg4 mi
4:30 AM48 °FClear.2 mph87%29.98 "Hg10 mi
4:00 AM50 °FClear.1 mph88%29.95 "Hg10 mi
3:30 AM46 °FClear.1 mph100%29.95 "Hg5 mi
3:00 AM46 °FFog.5 mph93%29.95 "Hg3 mi
2:30 AM48 °FClear.3 mph94%29.95 "Hg4 mi
2:00 AM48 °FFog.5 mph100%29.95 "Hg3 mi
1:30 AM48 °FFog.3 mph94%29.95 "Hg3 mi
1:00 AM52 °FClear.6 mph88%29.95 "Hg4 mi
12:00 AM52 °FPassing clouds.3 mph88%29.92 "HgN/A
11:30 PM
Tue, May 3
55 °FClear.2 mph72%29.92 "Hg10 mi
11:00 PM55 °FClear.12 mph72%29.92 "Hg10 mi
10:30 PM57 °FClear.13 mph67%29.92 "Hg10 mi
10:00 PM57 °FClear.10 mph67%29.92 "Hg10 mi
9:30 PM57 °FClear.12 mph67%29.89 "Hg10 mi
9:00 PM57 °FSunny.12 mph67%29.89 "Hg10 mi
8:30 PM57 °FSunny.10 mph67%29.89 "Hg10 mi
8:00 PM59 °FSunny.9 mph63%29.89 "Hg10 mi
7:30 PM61 °FSunny.12 mph63%29.89 "Hg10 mi
7:00 PM61 °FSunny.9 mph63%29.86 "Hg10 mi
6:30 PM63 °FPassing clouds.12 mph59%29.86 "HgN/A
6:00 PM63 °FPassing clouds.13 mph59%29.86 "HgN/A
5:30 PM63 °FPassing clouds.14 mph56%29.86 "HgN/A
5:00 PM64 °FPassing clouds.14 mph56%29.86 "HgN/A
4:30 PM64 °FPassing clouds.16 mph60%29.86 "HgN/A
4:00 PM64 °FPassing clouds.16 mph46%29.86 "HgN/A
3:30 PM64 °FScattered clouds.16 mph46%29.86 "HgN/A
3:00 PM64 °FScattered clouds.17 mph52%29.89 "HgN/A
2:30 PM64 °FScattered clouds.15 mph56%29.89 "HgN/A
1:30 PM63 °FScattered clouds.13 mph59%29.92 "HgN/A
1:00 PM63 °FPassing clouds.10 mph59%29.92 "HgN/A
12:30 PM63 °FPassing clouds.6 mph68%29.92 "HgN/A
12:00 PM59 °FPassing clouds.10 mph68%29.95 "HgN/A
11:00 AM57 °FPartly sunny.7 mph77%29.95 "HgN/A
10:30 AM55 °FPartly sunny.7 mph82%29.98 "HgN/A
10:00 AM55 °FPartly sunny.7 mph82%29.95 "HgN/A
9:30 AM55 °FPartly sunny.6 mph82%29.95 "HgN/A
9:00 AM54 °FPartly sunny.7 mph82%29.98 "HgN/A
Weather by CustomWeather, © 2016

See weather overviewHow to use our weather pages